| time (UTC) | temp C | wind direction | speed KPH | gust KPH | rain 1hr cm | rain 24hr cm | rain mn cm | humidity % | barometer mb |
| 20260505171509 | 13 | 193 | 3.2 | 11.3 | 0.00 | 0.58 | 0.58 | 86 | 1015.5 |
| 20260505170008 | 13 | 205 | 1.6 | 11.3 | 0.00 | 0.58 | 0.58 | 87 | 1015.3 |
| 20260505164504 | 13 | 139 | 0.0 | 6.4 | 0.00 | 0.58 | 0.58 | 88 | 1015.3 |
| 20260505163009 | 13 | 119 | 1.6 | 4.8 | 0.00 | 0.58 | 0.58 | 90 | 1015.3 |
| 20260505161502 | 12 | 200 | 0.0 | 6.4 | 0.00 | 0.58 | 0.58 | 92 | 1015.2 |
| 20260505153102 | 12 | 21 | 0.0 | 0.0 | 0.20 | 0.58 | 0.58 | 91 | 1015.1 |
| 20260505151604 | 12 | 322 | 0.0 | 6.4 | 0.20 | 0.58 | 0.58 | 91 | 1014.9 |
| 20260505140107 | 12 | 163 | 0.0 | 6.4 | 0.10 | 0.38 | 0.38 | 91 | 1014.3 |
| 20260505124536 | 12 | 200 | 0.0 | 3.2 | 0.03 | 0.28 | 0.28 | 91 | 1013.5 |
| 20260505123032 | 12 | 226 | 0.0 | 3.2 | 0.03 | 0.28 | 0.28 | 91 | 1013.4 |
| 20260505121537 | 12 | 199 | 0.0 | 3.2 | 0.00 | 0.25 | 0.25 | 91 | 1013.4 |
| 20260505120042 | 12 | 199 | 0.0 | 6.4 | 0.00 | 0.25 | 0.25 | 90 | 1013.4 |
| 20260505114532 | 13 | 195 | 0.0 | 3.2 | 0.00 | 0.25 | 0.25 | 90 | 1013.4 |
| 20260505113028 | 13 | 156 | 0.0 | 6.4 | 0.03 | 0.25 | 0.25 | 90 | 1013.4 |
| 20260505111527 | 13 | 177 | 0.0 | 9.7 | 0.05 | 0.25 | 0.25 | 90 | 1013.4 |
| 20260505101538 | 12 | 168 | 1.6 | 8.0 | 0.05 | 0.20 | 0.20 | 88 | 1013.5 |
| 20260505100023 | 12 | 149 | 3.2 | 11.3 | 0.10 | 0.20 | 0.20 | 88 | 1013.7 |
| 20260505094531 | 12 | 170 | 3.2 | 8.0 | 0.15 | 0.20 | 0.20 | 87 | 1013.6 |
| 20260505093018 | 12 | 107 | 0.0 | 8.0 | 0.20 | 0.20 | 0.20 | 86 | 1013.9 |
| 20260505091515 | 13 | 149 | 1.6 | 8.0 | 0.13 | 0.13 | 0.13 | 86 | 1014.1 |
| 20260505090019 | 13 | 188 | 0.0 | 3.2 | 0.10 | 0.10 | 0.10 | 85 | 1014.0 |
| 20260505084512 | 13 | 115 | 1.6 | 9.7 | 0.05 | 0.05 | 0.05 | 84 | 1014.2 |
| 20260505083017 | 13 | 122 | 3.2 | 16.1 | 0.00 | 0.00 | 0.00 | 83 | 1014.3 |
| 20260505081507 | 13 | 161 | 6.4 | 14.5 | 0.00 | 0.00 | 0.00 | 82 | 1014.5 |
| 20260505080006 | 14 | 192 | 0.0 | 12.9 | 0.00 | 0.00 | 0.00 | 81 | 1014.5 |
| 20260505074600 | 14 | 177 | 6.4 | 12.9 | 0.00 | 0.00 | 0.00 | 78 | 1014.6 |
| 20260505073129 | 15 | 197 | 6.4 | 11.3 | 0.00 | 0.00 | 0.00 | 77 | 1014.5 |
| 20260505071602 | 15 | 179 | 3.2 | 9.7 | 0.00 | 0.00 | 0.00 | 76 | 1014.6 |
| 20260505070100 | 15 | 154 | 1.6 | 11.3 | 0.00 | 0.00 | 0.00 | 75 | 1014.7 |
| 20260505064553 | 15 | 162 | 3.2 | 11.3 | 0.00 | 0.00 | 0.00 | 75 | 1014.8 |
| 20260505063052 | 15 | 168 | 3.2 | 11.3 | 0.00 | 0.00 | 0.00 | 75 | 1014.8 |
| 20260505061552 | 15 | 165 | 3.2 | 11.3 | 0.00 | 0.00 | 0.00 | 75 | 1015.0 |
| 20260505060053 | 15 | 161 | 4.8 | 11.3 | 0.00 | 0.00 | 0.00 | 74 | 1015.1 |
| 20260505054551 | 15 | 126 | 6.4 | 12.9 | 0.00 | 0.00 | 0.00 | 74 | 1015.2 |
| 20260505053051 | 15 | 149 | 4.8 | 11.3 | 0.00 | 0.00 | 0.00 | 73 | 1015.4 |
| 20260505051602 | 15 | 170 | 6.4 | 11.3 | 0.00 | 0.00 | 0.00 | 72 | 1015.6 |
| 20260505041549 | 15 | 178 | 4.8 | 9.7 | 0.00 | 0.00 | 0.00 | 72 | 1015.6 |
| 20260505040047 | 15 | 204 | 0.0 | 8.0 | 0.00 | 0.00 | 0.00 | 71 | 1015.5 |
| 20260505034549 | 15 | 212 | 1.6 | 11.3 | 0.00 | 0.00 | 0.00 | 71 | 1015.4 |
| 20260505033047 | 16 | 210 | 0.0 | 9.7 | 0.00 | 0.00 | 0.00 | 70 | 1015.4 |
| 20260505031552 | 16 | 171 | 0.0 | 9.7 | 0.00 | 0.00 | 0.00 | 70 | 1015.1 |
| 20260505030045 | 16 | 238 | 3.2 | 9.7 | 0.00 | 0.00 | 0.00 | 69 | 1015.1 |
| 20260505024544 | 16 | 185 | 1.6 | 12.9 | 0.00 | 0.00 | 0.00 | 68 | 1014.9 |
| 20260505023050 | 16 | 193 | 6.4 | 16.1 | 0.00 | 0.00 | 0.00 | 67 | 1014.9 |
| 20260505021544 | 16 | 168 | 3.2 | 14.5 | 0.00 | 0.00 | 0.00 | 66 | 1014.8 |
| 20260505020043 | 17 | 163 | 4.8 | 12.9 | 0.00 | 0.00 | 0.00 | 64 | 1014.9 |
| 20260505014542 | 17 | 228 | 4.8 | 14.5 | 0.00 | 0.00 | 0.00 | 62 | 1014.7 |
| 20260505013058 | 18 | 213 | 4.8 | 17.7 | 0.00 | 0.00 | 0.00 | 61 | 1014.9 |
| 20260505011541 | 18 | 243 | 0.0 | 12.9 | 0.00 | 0.00 | 0.00 | 60 | 1014.8 |
| 20260505010040 | 18 | 182 | 8.0 | 19.3 | 0.00 | 0.00 | 0.00 | 58 | 1014.9 |
| 20260505004540 | 19 | 139 | 8.0 | 17.7 | 0.00 | 0.00 | 0.00 | 56 | 1015.0 |
| 20260505003039 | 20 | 186 | 8.0 | 17.7 | 0.00 | 0.00 | 0.00 | 54 | 1014.8 |
| 20260505001538 | 20 | 253 | 6.4 | 17.7 | 0.00 | 0.00 | 0.00 | 51 | 1014.8 |
| 20260505000051 | 20 | 225 | 4.8 | 14.5 | 0.00 | 0.00 | 0.00 | 51 | 1014.7 |
| 20260504234538 | 20 | 174 | 8.0 | 19.3 | 0.00 | 0.00 | 0.00 | 51 | 1014.9 |
| 20260504233041 | 20 | 230 | 6.4 | 14.5 | 0.00 | 0.00 | 0.00 | 51 | 1014.8 |
| 20260504231536 | 21 | 187 | 4.8 | 19.3 | 0.00 | 0.00 | 0.00 | 50 | 1014.7 |
| 20260504230036 | 21 | 178 | 4.8 | 22.5 | 0.00 | 0.00 | 0.00 | 49 | 1014.8 |
| 20260504224535 | 21 | 163 | 8.0 | 17.7 | 0.00 | 0.00 | 0.00 | 50 | 1014.8 |
| 20260504223041 | 21 | 167 | 8.0 | 17.7 | 0.00 | 0.00 | 0.00 | 47 | 1014.9 |
| 20260504221533 | 21 | 201 | 3.2 | 14.5 | 0.00 | 0.00 | 0.00 | 47 | 1014.9 |
| 20260504220040 | 21 | 234 | 8.0 | 25.7 | 0.00 | 0.00 | 0.00 | 47 | 1015.1 |
| 20260504214541 | 21 | 157 | 4.8 | 17.7 | 0.00 | 0.00 | 0.00 | 49 | 1015.2 |
| 20260504213035 | 21 | 199 | 8.0 | 16.1 | 0.00 | 0.00 | 0.00 | 48 | 1015.2 |
| 20260504211536 | 21 | 203 | 6.4 | 19.3 | 0.00 | 0.00 | 0.00 | 48 | 1015.4 |
| 20260504210031 | 21 | 191 | 4.8 | 20.9 | 0.00 | 0.00 | 0.00 | 47 | 1015.3 |
| 20260504204531 | 21 | 255 | 11.3 | 19.3 | 0.00 | 0.00 | 0.00 | 46 | 1015.6 |
| 20260504203032 | 21 | 207 | 8.0 | 17.7 | 0.00 | 0.00 | 0.00 | 47 | 1015.3 |
| 20260504201529 | 21 | 178 | 11.3 | 22.5 | 0.00 | 0.00 | 0.00 | 48 | 1015.4 |
| 20260504200027 | 21 | 216 | 8.0 | 17.7 | 0.00 | 0.00 | 0.00 | 50 | 1015.6 |
| 20260504194524 | 20 | 215 | 9.7 | 17.7 | 0.00 | 0.00 | 0.00 | 50 | 1015.8 |
| 20260504193025 | 20 | 262 | 3.2 | 16.1 | 0.00 | 0.00 | 0.00 | 51 | 1015.8 |
| 20260504191523 | 20 | 249 | 9.7 | 19.3 | 0.00 | 0.00 | 0.00 | 51 | 1015.8 |
| 20260504190019 | 20 | 184 | 6.4 | 12.9 | 0.00 | 0.00 | 0.00 | 53 | 1016.0 |
| 20260504184519 | 19 | 245 | 8.0 | 17.7 | 0.00 | 0.00 | 0.00 | 52 | 1016.2 |
| 20260504183016 | 18 | 178 | 4.8 | 12.9 | 0.00 | 0.00 | 0.00 | 56 | 1016.2 |
| 20260504181523 | 18 | 268 | 4.8 | 12.9 | 0.00 | 0.00 | 0.00 | 59 | 1016.3 |
| 20260504180011 | 18 | 189 | 1.6 | 11.3 | 0.00 | 0.00 | 0.00 | 59 | 1016.3 |
| 20260504174509 | 17 | 229 | 4.8 | 12.9 | 0.00 | 0.00 | 0.00 | 61 | 1016.2 |
| 20260504173009 | 18 | 160 | 3.2 | 17.7 | 0.00 | 0.00 | 0.00 | 62 | 1016.2 |